TimeEST,TemperatureF,Dew PointF,Humidity,Sea Level PressureIn,VisibilityMPH,Wind Direction,Wind SpeedMPH,Gust SpeedMPH,PrecipitationIn,Events,Conditions,WindDirDegrees,DateUTC
12:15 AM,39.2,35.6,87,29.95,10.0,Calm,Calm,-,N/A,,Clear,0,2013-02-16 05:15:00
12:35 AM,39.2,35.6,87,29.95,10.0,Calm,Calm,-,N/A,,Clear,0,2013-02-16 05:35:00
12:55 AM,39.2,35.6,87,29.94,10.0,South,3.5,-,N/A,,Clear,180,2013-02-16 05:55:00
1:15 AM,41.0,35.6,81,29.97,10.0,NW,9.2,23.0,N/A,,Clear,320,2013-02-16 06:15:00
1:35 AM,44.6,35.6,71,29.97,10.0,Calm,Calm,-,N/A,,Scattered Clouds,0,2013-02-16 06:35:00
1:55 AM,41.0,35.6,81,29.96,10.0,Calm,Calm,-,N/A,,Scattered Clouds,0,2013-02-16 06:55:00
2:15 AM,41.0,35.6,81,29.96,10.0,North,3.5,-,N/A,,Scattered Clouds,10,2013-02-16 07:15:00
2:35 AM,42.8,37.4,81,29.96,10.0,North,10.4,16.1,N/A,,Clear,10,2013-02-16 07:35:00
2:55 AM,42.8,37.4,81,29.95,10.0,North,5.8,-,N/A,,Clear,10,2013-02-16 07:55:00
3:15 AM,42.8,37.4,81,29.95,10.0,North,6.9,-,N/A,,Mostly Cloudy,10,2013-02-16 08:15:00
3:35 AM,42.8,37.4,81,29.95,10.0,North,9.2,16.1,N/A,,Scattered Clouds,10,2013-02-16 08:35:00
3:55 AM,41.0,37.4,87,29.95,10.0,North,8.1,-,N/A,,Scattered Clouds,360,2013-02-16 08:55:00
4:15 AM,41.0,37.4,87,29.95,10.0,North,6.9,-,N/A,,Scattered Clouds,10,2013-02-16 09:15:00
4:35 AM,41.0,37.4,87,29.95,10.0,North,5.8,-,N/A,,Clear,10,2013-02-16 09:35:00
4:55 AM,41.0,37.4,87,29.94,10.0,North,6.9,-,N/A,,Clear,10,2013-02-16 09:55:00
5:15 AM,41.0,37.4,87,29.94,10.0,North,5.8,-,N/A,,Scattered Clouds,10,2013-02-16 10:15:00
5:35 AM,41.0,35.6,81,29.94,10.0,North,4.6,-,N/A,,Scattered Clouds,10,2013-02-16 10:35:00
5:55 AM,41.0,35.6,81,29.93,10.0,NNE,4.6,-,N/A,,Mostly Cloudy,20,2013-02-16 10:55:00
6:15 AM,41.0,35.6,81,29.93,10.0,North,4.6,-,N/A,,Overcast,10,2013-02-16 11:15:00
6:35 AM,41.0,35.6,81,29.93,10.0,North,4.6,-,N/A,,Overcast,10,2013-02-16 11:35:00
6:55 AM,41.0,33.8,76,29.93,10.0,North,4.6,-,N/A,,Mostly Cloudy,360,2013-02-16 11:55:00
7:15 AM,41.0,33.8,76,29.93,10.0,NNE,4.6,-,N/A,,Mostly Cloudy,20,2013-02-16 12:15:00
7:35 AM,41.0,33.8,76,29.93,10.0,North,5.8,-,N/A,,Mostly Cloudy,10,2013-02-16 12:35:00
7:55 AM,42.8,35.6,76,29.93,10.0,North,4.6,-,N/A,,Scattered Clouds,360,2013-02-16 12:55:00
8:15 AM,42.8,35.6,76,29.93,10.0,North,6.9,-,N/A,,Scattered Clouds,350,2013-02-16 13:15:00
8:35 AM,44.6,35.6,71,29.92,10.0,NNW,6.9,-,N/A,,Scattered Clouds,340,2013-02-16 13:35:00
8:55 AM,44.6,33.8,66,29.91,10.0,North,10.4,20.7,N/A,,Scattered Clouds,350,2013-02-16 13:55:00
9:15 AM,44.6,33.8,66,29.92,10.0,North,5.8,17.3,N/A,,Mostly Cloudy,10,2013-02-16 14:15:00
9:35 AM,44.6,33.8,66,29.92,10.0,North,9.2,19.6,N/A,,Overcast,10,2013-02-16 14:35:00
9:55 AM,44.6,30.2,57,29.91,10.0,North,13.8,19.6,N/A,,Overcast,10,2013-02-16 14:55:00
10:15 AM,44.6,32.0,61,29.90,10.0,North,11.5,18.4,N/A,,Overcast,360,2013-02-16 15:15:00
10:35 AM,44.6,33.8,66,29.90,10.0,North,9.2,18.4,N/A,,Overcast,10,2013-02-16 15:35:00
1:15 PM,41.0,33.8,76,29.85,10.0,North,9.2,17.3,N/A,,Overcast,350,2013-02-16 18:15:00
1:35 PM,41.0,33.8,76,29.84,10.0,NNE,6.9,-,N/A,,Overcast,20,2013-02-16 18:35:00
1:55 PM,39.2,35.6,87,29.83,10.0,North,8.1,-,N/A,,Light Drizzle,360,2013-02-16 18:55:00
2:15 PM,39.2,35.6,87,29.83,10.0,North,8.1,-,N/A,Rain,Light Rain,350,2013-02-16 19:15:00
2:35 PM,39.2,35.6,87,29.82,7.0,Calm,Calm,-,N/A,Rain,Light Rain,0,2013-02-16 19:35:00
2:55 PM,37.4,35.6,93,29.81,7.0,North,5.8,-,0.01,Rain,Light Rain,350,2013-02-16 19:55:00
3:15 PM,37.4,35.6,93,29.79,5.0,North,8.1,-,0.02,Rain,Light Rain,350,2013-02-16 20:15:00
3:35 PM,37.4,35.6,93,29.79,7.0,NNW,10.4,-,0.03,Rain,Rain,340,2013-02-16 20:35:00
3:55 PM,37.4,35.6,93,29.79,3.0,NNW,9.2,-,0.01,Rain,Rain,340,2013-02-16 20:55:00
4:15 PM,35.6,35.6,100,29.78,4.0,North,8.1,-,0.04,Rain,Rain,350,2013-02-16 21:15:00
4:35 PM,35.6,35.6,100,29.78,3.0,NW,5.8,-,0.06,Rain,Light Rain,320,2013-02-16 21:35:00
4:55 PM,33.8,33.8,100,29.79,1.2,NNW,4.6,-,0.01,Snow,Light Snow,330,2013-02-16 21:55:00
5:15 PM,33.8,33.8,100,29.78,0.8,North,3.5,-,0.03,Snow,Snow,350,2013-02-16 22:15:00
5:35 PM,33.8,33.8,100,29.78,1.2,NNW,4.6,-,0.06,Snow,Light Snow,340,2013-02-16 22:35:00
5:55 PM,33.8,33.8,100,29.78,1.8,NNW,4.6,-,N/A,Snow,Light Snow,330,2013-02-16 22:55:00
6:15 PM,33.8,33.8,100,29.77,2.5,NNW,6.9,-,0.01,Snow,Light Snow,340,2013-02-16 23:15:00
6:35 PM,33.8,33.8,100,29.78,4.0,NW,6.9,-,0.02,Snow,Light Snow,320,2013-02-16 23:35:00
6:55 PM,33.8,33.8,100,29.78,3.0,NNW,5.8,-,0.01,Snow,Light Snow,330,2013-02-16 23:55:00
7:15 PM,33.8,33.8,100,29.78,5.0,NNW,9.2,-,0.01,Snow,Light Snow,340,2013-02-17 00:15:00
7:35 PM,33.8,33.8,100,29.79,5.0,NNW,6.9,-,0.02,Snow,Light Snow,330,2013-02-17 00:35:00
7:55 PM,33.8,33.8,100,29.78,5.0,NNW,10.4,16.1,N/A,Snow,Light Snow,330,2013-02-17 00:55:00
8:15 PM,33.8,33.8,100,29.79,3.0,NNW,8.1,17.3,0.01,Snow,Light Snow,330,2013-02-17 01:15:00
8:35 PM,33.8,33.8,100,29.78,2.5,NNW,9.2,16.1,0.02,Snow,Light Snow,340,2013-02-17 01:35:00
8:55 PM,33.8,33.8,100,29.78,3.0,NNW,8.1,-,N/A,Snow,Light Snow,340,2013-02-17 01:55:00
9:15 PM,33.8,33.8,100,29.79,2.0,NNW,6.9,16.1,0.01,Snow,Light Snow,340,2013-02-17 02:15:00
9:35 PM,33.8,33.8,100,29.79,2.5,NNW,9.2,16.1,0.01,Snow,Light Snow,330,2013-02-17 02:35:00
9:55 PM,33.8,33.8,100,29.79,2.5,NW,12.7,-,N/A,Snow,Light Snow,320,2013-02-17 02:55:00
10:15 PM,33.8,33.8,100,29.79,2.0,NNW,15.0,23.0,N/A,Snow,Light Snow,330,2013-02-17 03:15:00
10:35 PM,33.8,33.8,100,29.79,2.5,NNW,13.8,18.4,N/A,Snow,Light Snow,330,2013-02-17 03:35:00
10:55 PM,33.8,33.8,100,29.79,5.0,NNW,12.7,20.7,N/A,Snow,Light Snow,330,2013-02-17 03:55:00
11:15 PM,33.8,32.0,93,29.79,10.0,NNW,10.4,19.6,N/A,,Overcast,330,2013-02-17 04:15:00
11:35 PM,33.8,32.0,93,29.79,10.0,NW,9.2,19.6,N/A,,Overcast,320,2013-02-17 04:35:00
11:55 PM,33.8,32.0,93,29.79,10.0,NNW,11.5,17.3,N/A,,Overcast,330,2013-02-17 04:55:00